Wind_Speed
19 19 19 19 20 20 20 20 20 20 21 23 23 24 24 24 23 23 24 24 24 24 24 24 25 24 24 24 24 25 25 25 25 25 25 24 25 25 25 25 24 25 25 26
20 21 21 21 21 21 21 21 21 22 23 24 24 24 24 24 24 24 24 25 25 26 26 26 26 26 26 25 25 26 26 26 26 26 26 26 26 26 25 26 26 26 27 26
21 21 22 23 22 22 22 22 22 23 23 24 24 25 25 25 26 26 26 26 26 27 27 27 27 27 27 27 27 27 27 27 27 27 27 28 28 27 27 27 27 27 27 27
21 21 23 22 22 22 23 23 24 25 25 25 26 25 26 27 27 27 27 27 27 27 28 28 28 28 28 28 28 28 28 28 29 29 28 28 28 28 28 28 27 27 28 29
21 22 23 21 23 23 24 25 25 26 26 27 28 27 27 28 28 27 28 27 27 27 28 28 29 29 29 29 29 29 29 29 30 29 30 30 29 29 29 29 29 29 29 30
22 23 23 22 24 24 25 26 25 26 26 27 27 27 26 27 27 27 27 27 27 27 28 28 29 29 29 29 29 29 29 29 30 30 30 30 30 30 30 30 30 30 31 31
24 24 24 23 25 25 26 26 26 26 26 27 27 27 26 26 26 26 26 26 26 27 27 28 28 28 28 29 29 28 28 29 29 29 29 30 31 31 31 31 31 31 31 31
25 26 25 25 26 26 26 26 26 27 27 27 27 27 27 27 26 27 26 26 27 27 27 27 27 28 28 29 29 28 27 28 29 29 29 29 31 32 32 32 32 32 32 33
25 26 26 26 26 26 26 26 26 26 27 26 26 26 27 27 28 27 26 26 27 27 27 26 26 27 28 28 29 28 27 28 28 28 29 30 31 31 32 32 32 33 33 32
24 25 27 28 28 27 27 27 26 26 26 27 26 26 26 27 27 28 27 27 27 27 27 27 26 26 26 26 27 28 28 28 29 29 29 30 30 31 32 32 32 33 32 31
26 27 27 27 27 27 28 27 27 27 27 27 27 27 27 27 27 28 28 27 27 27 27 27 27 26 26 26 27 27 28 28 28 29 29 30 30 30 30 30 30 30 30 30
27 27 28 28 28 28 29 28 27 27 27 27 27 27 27 27 27 28 28 27 27 26 27 27 27 27 27 27 27 27 28 29 29 28 29 29 29 29 29 29 29 29 30 31
28 29 30 29 28 28 28 28 28 28 27 27 28 28 28 28 27 28 27 27 27 27 28 28 28 28 28 27 28 28 29 29 29 29 29 29 29 29 29 29 29 29 30 31
30 30 30 29 29 28 28 28 28 27 27 28 28 27 27 27 28 28 27 27 28 28 28 28 28 29 29 29 30 30 30 29 29 29 29 29 30 30 30 30 29 29 30 31
29 30 29 29 29 29 27 27 26 27 27 27 27 27 27 28 28 27 27 27 28 28 29 29 29 29 29 30 30 30 30 29 30 30 30 30 30 30 30 30 30 30 30 30
29 29 29 28 27 28 28 27 27 27 27 28 28 28 28 28 27 27 27 27 27 27 28 28 28 29 29 29 30 30 30 30 30 30 30 30 30 30 30 30 30 30 31 31
29 29 29 28 28 28 28 27 27 27 27 27 27 27 26 26 26 27 27 28 28 28 29 29 29 29 29 29 29 29 29 29 29 29 30 30 30 30 30 30 30 31 31 32
28 28 28 28 28 28 28 28 28 28 27 27 26 26 26 26 26 26 27 27 28 29 29 29 29 29 29 29 29 29 29 29 29 29 30 30 30 29 30 30 30 31 31 31
27 27 28 29 29 29 29 29 28 28 28 27 27 27 27 28 28 27 28 28 29 29 29 29 28 29 29 29 29 30 30 30 30 30 30 30 30 30 30 30 30 30 30 31
27 27 28 28 29 29 29 28 29 29 29 28 27 27 28 28 29 29 28 28 28 28 28 28 28 28 29 29 29 30 30 30 30 30 30 30 30 30 30 30 30 30 30 31
27 27 27 27 28 28 28 28 29 29 29 28 28 28 28 28 28 28 28 28 28 28 28 28 28 28 28 28 28 29 29 29 29 29 29 30 30 30 30 30 30 30 31 31
26 27 27 27 27 27 27 28 28 28 29 29 29 28 29 28 28 28 27 27 27 27 27 28 27 27 27 27 27 28 28 28 28 29 29 29 29 29 29 29 30 30 30 31
28 28 28 28 28 28 28 28 28 28 29 29 29 29 29 28 28 27 27 27 26 26 27 27 27 27 27 28 28 28 28 28 28 28 28 28 29 29 29 29 29 30 30 31
30 30 30 29 29 29 28 28 28 28 29 29 29 28 28 28 28 28 28 28 28 28 28 28 28 28 28 28 28 28 27 27 27 27 27 28 28 29 29 29 30 30 30 30
30 30 30 31 30 30 30 30 29 29 29 28 28 28 28 28 29 29 29 29 29 29 28 28 28 28 28 29 28 28 27 27 27 27 27 27 27 28 29 30 31 31 32 31
30 30 30 31 31 31 31 31 30 30 30 29 29 28 28 28 28 29 28 28 28 29 29 29 29 28 29 29 29 29 29 29 29 28 28 28 28 29 30 30 31 32 32 32
30 30 30 31 31 31 31 31 31 30 30 29 29 28 28 28 28 28 27 28 28 28 28 28 28 28 29 29 30 30 29 29 29 29 29 29 30 31 31 32 32 32 32 31
Wind_Direction
259 260 265 267 264 263 264 267 270 270 270 271 274 274 275 274 275 274 276 276 277 276 277 277 276 275 276 277 277 277 276 276 276 278 279 280 280 281 281 282 282 282 284 286
261 262 263 264 264 264 267 269 271 272 272 274 277 277 277 277 276 275 276 276 276 277 278 277 277 276 277 278 277 277 276 276 276 276 277 278 279 280 281 281 282 283 284 286
262 263 263 265 268 268 270 273 274 274 274 275 276 278 278 279 278 277 277 276 276 277 277 277 277 277 277 278 277 277 276 276 276 276 276 276 277 279 280 281 283 284 285 286
265 265 267 271 272 270 271 273 275 275 275 276 278 280 281 281 280 279 277 277 277 277 276 277 277 277 279 279 278 277 276 275 275 276 275 276 277 279 280 281 283 284 286 286
265 268 270 272 272 271 272 274 275 277 278 277 277 280 281 282 282 281 280 278 277 277 276 277 278 278 279 279 279 277 274 274 274 274 274 276 277 278 280 280 282 285 286 287
267 269 271 273 274 274 275 276 278 280 281 280 279 279 280 281 282 282 280 280 279 278 277 276 277 278 279 279 278 276 274 274 275 275 275 276 277 278 279 280 282 283 283 286
268 269 272 273 275 274 274 278 280 281 281 280 279 280 281 283 283 283 283 282 283 282 282 281 279 279 279 278 277 277 276 275 275 275 274 276 277 279 279 280 282 283 284 285
268 270 271 273 276 274 275 278 280 281 281 280 280 280 281 281 282 282 283 284 284 283 284 283 281 280 279 278 276 276 276 275 276 276 276 278 278 279 280 281 281 283 285 286
271 272 272 272 274 276 276 277 278 281 282 281 279 280 281 282 282 283 284 284 285 284 284 283 282 282 282 279 277 275 277 277 279 280 279 279 279 280 281 282 283 285 285 286
270 272 272 273 275 276 277 279 279 280 281 281 281 282 283 284 284 285 285 285 284 283 285 285 284 284 284 280 279 277 279 279 280 282 282 282 282 283 283 284 285 287 286 287
269 270 270 272 275 276 277 278 279 279 280 280 282 283 283 284 284 285 286 285 284 284 286 286 285 285 284 282 280 279 279 280 282 282 282 282 283 284 284 286 288 288 288 288
270 271 273 275 277 277 277 277 278 279 279 279 281 282 283 283 284 285 286 285 285 285 286 286 285 285 284 282 280 280 280 281 281 281 282 283 284 284 284 286 288 289 289 289
269 271 273 275 277 277 276 277 277 278 279 279 280 282 283 283 283 285 285 285 285 286 286 286 285 285 284 283 283 282 283 281 280 282 283 284 285 285 285 286 287 289 290 289
269 272 273 274 275 275 276 277 276 277 278 278 280 281 282 283 283 284 285 286 286 287 287 287 286 285 284 283 283 283 283 282 282 282 283 283 285 286 286 287 287 288 290 290
270 271 272 273 272 272 273 275 276 277 278 277 278 280 281 282 281 283 285 286 286 287 288 288 288 286 284 283 282 282 282 282 282 282 282 283 284 286 287 286 288 289 290 291
271 273 273 273 272 272 272 274 275 277 279 280 280 281 281 280 281 284 286 286 287 289 290 289 288 287 284 282 283 283 283 283 282 281 281 282 284 285 286 286 287 288 289 290
270 271 272 272 272 273 274 275 277 278 278 280 281 281 281 282 283 284 285 285 286 288 289 289 289 287 285 284 284 284 284 284 284 282 281 281 283 284 285 287 288 288 289 291
270 272 274 274 274 275 275 276 276 277 278 279 280 281 282 283 284 285 286 287 288 289 289 289 289 288 287 286 284 283 284 284 285 285 283 282 283 284 285 287 290 290 291 292
272 272 273 275 276 276 276 276 277 277 277 278 280 282 283 283 285 285 287 288 288 289 288 288 287 287 287 286 285 285 285 285 286 285 284 283 283 285 286 289 291 291 292 292
272 273 273 274 275 275 275 276 277 277 278 278 279 280 282 283 284 285 286 287 288 288 287 287 287 287 287 287 286 286 285 285 285 285 284 283 283 284 286 288 290 290 291 293
273 273 273 273 275 276 276 276 277 277 276 277 278 280 280 282 283 284 285 285 287 288 289 290 290 289 288 287 286 287 286 286 286 285 285 284 284 284 285 286 288 290 291 293
276 274 274 274 275 276 276 277 277 276 276 277 278 279 280 281 283 283 284 286 287 288 289 290 289 289 289 288 288 288 288 287 287 286 285 285 285 285 286 287 289 290 291 292
277 276 275 275 276 276 275 276 277 277 277 278 279 280 280 280 281 282 283 284 286 288 289 290 289 289 289 289 289 289 289 289 288 288 286 286 286 286 286 288 290 291 291 292
278 276 276 276 276 276 275 276 278 279 280 279 279 279 278 279 280 282 283 283 285 287 288 289 288 288 288 289 289 288 288 289 290 290 289 288 286 286 287 289 291 291 292 293
279 278 277 277 277 276 277 277 277 278 279 279 280 279 278 278 279 280 281 282 283 286 287 287 286 286 286 287 287 287 289 290 291 291 291 289 288 288 289 290 291 291 291 293
280 279 278 278 278 277 277 277 276 276 278 279 279 280 279 279 280 281 281 282 283 283 284 285 285 284 285 286 287 288 289 290 290 291 291 291 291 291 291 291 291 292 292 292
280 280 278 278 278 278 277 277 277 277 276 277 278 279 279 279 280 281 281 282 282 283 283 284 284 284 285 286 286 287 287 288 289 290 290 291 293 293 293 292 292 292 293 293
Height
5789 5790 5790 5790 5791 5791 5791 5792 5792 5792 5792 5791 5790 5789 5789 5788 5788 5787 5787 5786 5786 5785 5784 5784 5783 5782 5782 5782 5781 5781 5780 5780 5780 5779 5779 5778 5778 5777 5777 5776 5775 5775 5774 5773
5784 5784 5784 5785 5785 5786 5786 5786 5786 5786 5786 5784 5784 5783 5782 5782 5781 5781 5780 5779 5779 5778 5777 5776 5775 5775 5775 5774 5774 5773 5773 5773 5772 5772 5772 5771 5770 5770 5769 5769 5768 5767 5767 5766
5778 5778 5778 5779 5780 5780 5780 5780 5780 5780 5780 5778 5778 5777 5776 5775 5774 5774 5773 5772 5771 5770 5769 5768 5767 5767 5767 5766 5766 5765 5765 5764 5764 5764 5764 5763 5763 5762 5762 5761 5761 5760 5759 5758
5771 5772 5772 5776 5774 5774 5774 5774 5774 5773 5773 5772 5771 5770 5769 5768 5767 5766 5765 5764 5763 5762 5761 5760 5759 5759 5758 5757 5757 5757 5756 5756 5756 5756 5756 5755 5755 5755 5754 5753 5753 5752 5751 5750
5766 5765 5766 5769 5767 5767 5768 5768 5767 5766 5765 5765 5763 5763 5762 5760 5759 5758 5756 5755 5754 5753 5752 5751 5751 5750 5749 5749 5748 5748 5748 5747 5747 5746 5747 5747 5747 5746 5746 5745 5745 5744 5743 5742
5760 5760 5761 5763 5762 5761 5762 5761 5760 5759 5758 5757 5755 5755 5755 5753 5751 5750 5749 5747 5746 5745 5744 5743 5742 5741 5740 5740 5739 5738 5738 5738 5738 5738 5738 5738 5738 5738 5737 5737 5736 5735 5735 5734
5753 5753 5754 5756 5755 5755 5755 5754 5753 5751 5750 5749 5748 5747 5747 5745 5744 5742 5741 5740 5738 5737 5736 5734 5733 5732 5732 5731 5731 5730 5729 5729 5729 5729 5729 5729 5729 5729 5729 5728 5727 5727 5726 5725
5747 5747 5750 5749 5748 5748 5747 5746 5745 5744 5743 5742 5741 5740 5739 5738 5736 5735 5734 5732 5731 5729 5728 5726 5725 5724 5723 5723 5722 5722 5721 5721 5721 5721 5721 5720 5721 5720 5720 5719 5718 5718 5716 5715
5741 5743 5742 5740 5740 5740 5739 5738 5738 5737 5736 5734 5734 5733 5731 5730 5729 5728 5726 5725 5723 5722 5720 5719 5718 5716 5715 5715 5714 5713 5713 5713 5713 5713 5712 5712 5712 5711 5711 5710 5709 5708 5707 5706
5734 5734 5734 5733 5733 5732 5732 5731 5731 5729 5728 5727 5726 5725 5724 5723 5721 5720 5719 5717 5716 5714 5712 5711 5710 5709 5707 5706 5706 5706 5706 5706 5705 5705 5704 5704 5703 5702 5702 5701 5700 5699 5698 5696
5726 5726 5726 5726 5725 5725 5724 5724 5723 5722 5720 5719 5718 5717 5716 5715 5713 5712 5711 5709 5708 5706 5705 5704 5702 5701 5700 5699 5698 5698 5698 5698 5697 5697 5696 5695 5694 5693 5693 5692 5691 5690 5689 5687
5719 5719 5718 5718 5718 5717 5716 5716 5715 5714 5713 5712 5710 5709 5708 5707 5706 5704 5703 5701 5700 5699 5697 5696 5695 5693 5692 5691 5690 5690 5689 5689 5689 5688 5688 5687 5686 5685 5684 5683 5682 5681 5680 5678
5711 5711 5710 5710 5710 5708 5708 5707 5707 5706 5705 5704 5703 5702 5700 5699 5698 5697 5695 5694 5693 5691 5690 5688 5687 5686 5685 5684 5683 5682 5681 5681 5680 5680 5679 5678 5677 5677 5676 5675 5674 5672 5671 5670
5703 5702 5702 5702 5701 5700 5700 5699 5699 5698 5697 5696 5695 5694 5693 5691 5690 5689 5688 5686 5685 5683 5682 5680 5679 5678 5677 5676 5675 5674 5673 5672 5672 5671 5670 5670 5669 5668 5667 5666 5665 5664 5662 5661
5694 5693 5693 5693 5693 5692 5691 5691 5691 5690 5689 5688 5687 5686 5685 5684 5682 5681 5680 5678 5677 5675 5674 5672 5671 5670 5669 5667 5666 5666 5665 5664 5663 5662 5662 5661 5660 5659 5658 5657 5656 5655 5653 5652
5686 5685 5685 5685 5684 5684 5683 5683 5683 5682 5681 5680 5679 5678 5677 5676 5674 5673 5672 5670 5669 5668 5666 5664 5663 5661 5660 5659 5658 5657 5656 5655 5654 5653 5653 5652 5651 5651 5650 5648 5647 5646 5644 5642
5677 5677 5677 5677 5676 5676 5675 5675 5675 5674 5673 5673 5672 5670 5669 5667 5666 5665 5664 5662 5661 5659 5658 5656 5655 5653 5652 5650 5650 5649 5648 5647 5645 5644 5644 5643 5642 5641 5640 5639 5638 5636 5634 5633
5669 5669 5669 5668 5668 5668 5667 5667 5666 5666 5665 5664 5663 5662 5661 5660 5659 5657 5656 5654 5652 5651 5649 5648 5646 5645 5643 5642 5641 5640 5639 5638 5637 5636 5635 5634 5633 5632 5631 5630 5628 5627 5625 5623
5661 5661 5661 5660 5660 5659 5659 5658 5658 5657 5657 5656 5655 5654 5653 5652 5650 5649 5647 5645 5644 5642 5641 5639 5638 5636 5635 5634 5633 5631 5630 5629 5628 5627 5626 5625 5624 5623 5622 5621 5619 5617 5616 5614
5653 5653 5652 5652 5651 5651 5650 5650 5649 5649 5648 5647 5647 5646 5645 5643 5642 5640 5639 5637 5635 5634 5633 5631 5630 5628 5627 5626 5624 5623 5622 5620 5619 5618 5617 5616 5615 5614 5613 5612 5610 5608 5606 5604
5645 5644 5644 5643 5643 5642 5642 5641 5641 5640 5640 5639 5638 5637 5636 5635 5633 5632 5630 5629 5628 5626 5624 5623 5621 5620 5618 5617 5616 5614 5613 5612 5610 5609 5608 5607 5606 5605 5604 5602 5601 5599 5597 5595
5637 5636 5635 5635 5635 5634 5633 5633 5632 5632 5631 5630 5629 5628 5627 5626 5625 5623 5622 5621 5619 5618 5616 5615 5613 5612 5610 5609 5607 5606 5604 5603 5601 5600 5599 5598 5597 5596 5595 5593 5592 5590 5588 5585
5628 5628 5627 5626 5626 5626 5625 5624 5623 5623 5622 5621 5620 5619 5618 5617 5616 5615 5614 5613 5611 5610 5608 5607 5605 5604 5602 5600 5599 5598 5596 5594 5593 5591 5590 5589 5588 5587 5585 5584 5582 5580 5578 5576
5619 5619 5619 5618 5617 5617 5616 5616 5615 5614 5613 5612 5611 5610 5609 5608 5608 5607 5606 5604 5603 5602 5600 5598 5597 5595 5594 5592 5591 5589 5588 5586 5585 5583 5581 5580 5579 5578 5576 5575 5573 5571 5569 5566
5610 5610 5610 5609 5608 5608 5607 5607 5606 5605 5604 5603 5602 5601 5600 5600 5599 5598 5597 5596 5595 5593 5592 5590 5588 5587 5585 5584 5583 5581 5580 5578 5576 5575 5573 5571 5570 5569 5567 5565 5564 5562 5560 5557
5601 5601 5600 5600 5599 5598 5598 5597 5596 5596 5595 5594 5594 5593 5592 5591 5590 5589 5588 5587 5586 5585 5583 5582 5580 5578 5577 5576 5574 5573 5571 5569 5568 5566 5564 5562 5561 5559 5558 5556 5554 5552 5550 5547
5592 5591 5591 5590 5589 5588 5588 5587 5586 5586 5586 5585 5584 5584 5583 5582 5581 5580 5579 5578 5577 5576 5574 5573 5571 5570 5568 5567 5565 5564 5562 5560 5559 5557 5555 5554 5552 5550 5548 5546 5544 5542 5540 5537